2nd June 2019 | Cork, Co Cork, Ireland

Irish Examiner Cork City Marathon (2019)

Relay: Female All-Female

Pos Name Team Name Gun Time Overall Pos Gender (Pos)
1 Leevale Ladies (#6542) 02:53:18 10 Female  (1)
2 Togher Women (#6503) 03:07:56 15 Female  (2)
3 St. Finbarr's Ac Ladies (#6429) ST FINBARR'S AC 03:16:21 26 Female  (3)
4 East Cork Ac Ladies (#6135) EAST CORK AC 03:19:06 31 Female  (4)
5 Sharon & The Pacemakers (#6570) WEST WATERFORD AC 03:33:34 60 Female  (5)
6 Wibbly Wobbly Wonders 5 (#6372) WIBBLY WOBBLY WONDERS 03:35:32 64 Female  (6)
7 Mabbey Ballers (#6508) N/A 03:43:17 101 Female  (7)
8 Tribe (#6412) 03:49:43 131 Female  (8)
9 The Just Abouts! (#6111) 03:52:52 149 Female  (9)
10 Sportsworld (#6497) SPORTSWORLD AC 03:56:01 166 Female  (10)
11 Sole Sisters (#6650) 03:57:45 182 Female  (11)
12 Douglas Meet & Train (#6209) DOUGLAS MEET & TRAIN 03:59:09 191 Female  (12)
13 Mnß D·naraill (#6010) DONERAILE AC 03:59:21 193 Female  (13)
14 Ciara O' Connor (#6584) 03:59:44 195 Female  (14)
15 Happy Feet (#6558) 04:00:41 201 Female  (15)
16 Sole Sisters (#6150) OTHER 04:00:52 203 Female  (16)
17 Togher Toughies (#6418) TOGHER AC 04:01:32 206 Female  (17)
18 The D Team (#6043) 04:01:48 207 Female  (18)
19 Brady's Babes (#6428) NORTH CORK AC 04:02:08 209 Female  (19)
20 Crosser Tri Girls (#6384) N/A 04:04:15 234 Female  (20)
21 Carbery Crackers (#6425) 04:05:10 246 Female  (21)
22 Mallow Ac Models (#6421) MALLOW AC 04:05:10 247 Female  (22)
23 Daft Dolls (#6169) MALLOW AC 04:05:11 248 Female  (23)
24 Mallow Moms (#6580) MALLOW AC 04:09:21 267 Female  (24)
25 Run-Tastic Ladies (#6567) MALLOW AC 04:10:13 278 Female  (25)
26 Legs Miserable (#6051) 04:10:27 281 Female  (26)
27 Super Fit 5 (#6512) 04:10:59 285 Female  (27)
28 The A Team (#6417) 04:11:29 289 Female  (28)
29 Viva Le Vino (#6048) 04:11:31 290 Female  (29)
30 Togher Twinkletoes (#6288) TOGHER FIT4LIFE 04:11:52 294 Female  (30)
31 Glounthaune Ladies (#6013) 04:12:08 297 Female  (31)
32 Feisty 5 (#6210) 04:13:45 312 Female  (32)
33 All For Some Pizza!! (#6504) BALLYMORE COBH AC 04:15:06 318 Female  (33)
34 Musgrave Hr 1 (#6106) N/A 04:15:18 321 Female  (34)
35 Team Skehan (#6273) 04:16:24 333 Female  (35)
36 Knockavilla School (#6014) 04:16:40 336 Female  (36)
37 Red Hot Chilli Peppers (#6402) RIVERSTICK/KINSALE AC 04:17:07 341 Female  (37)
38 Mloss (#6125) 04:17:24 342 Female  (38)
39 The Movement Movers (#6555) 04:17:38 343 Female  (39)
40 Couch To Relay (#6122) 04:17:52 345 Female  (40)
41 Drr Great Pretenders (#6235) DROMAHANE ROAD RUNNERS AC 04:18:10 348 Female  (41)
42 Mardyke Team 2 (#6440) UCC AC 04:19:37 363 Female  (42)
43 The B Team (#6485) 04:21:29 375 Female  (43)
44 The Sloggers (#6197) MALLOW AC 04:21:42 377 Female  (44)
45 Maldron Shandon's Girls On The Run (#6120) 04:22:22 390 Female  (45)
46 The Crash Carts (#6473) 04:22:39 392 Female  (46)
47 No Name (#6585) 04:22:56 396 Female  (47)
48 Definitely Up For This (#6275) 04:23:25 401 Female  (48)
49 Ccoc Ladies In The City (#6355) 04:23:32 402 Female  (49)
50 Last Min Again (#6416) 04:24:31 407 Female  (50)